Location: Betra
(48.4113°N, 8.6634°E)
Time: 15:05:55
(UTC+00:00)

Cosmos 1850 Rocket - Pass Details

Date: 16 August 2024
Orbit: 751 x 783 km, 74.0° (Epoch: 17 September)

Event Time Altitude Azimuth Distance (km) Brightness Sun altitude
Rises 20:08:13 0° 326° (NW) 3,267 8.8 -13.8°
Reaches altitude 10° 20:11:05 10° 311° (NW) 2,339 8.0 -14.2°
Maximum altitude 20:15:01 21° 263° (W) 1,681 6.3 -14.7°
Drops below altitude 10° 20:18:56 10° 215° (SW) 2,334 6.4 -15.2°
Sets 20:21:49 0° 200° (SSW) 3,259 7.0 -15.6°
